K4LEN Weather Reports


time (UTC)temp
C
wind
direction
speed
KPH
gust
KPH
rain 1hr
cm
rain 24hr
cm
rain mn
cm
humidity
%
barometer
mb
20260504190519 25 208 4.8 8.0 0.00 0.00 0.00 47 1016.5
20260504185518 25 6 14.5 17.7 0.00 0.00 0.00 49 1016.6
20260504184515 25 333 8.0 12.9 0.00 0.00 0.00 52 1016.5
20260504183514 25 235 4.8 8.0 0.00 0.00 0.00 50 1016.6
20260504182509 25 281 4.8 8.0 0.00 0.00 0.00 48 1016.7
20260504181509 24 181 8.0 14.5 0.00 0.00 0.00 50 1016.9
20260504180506 25 305 6.4 9.7 0.00 0.00 0.00 49 1017.1
20260504175501 25 8 8.0 11.3 0.00 0.00 0.00 51 1016.9
20260504174456 23 346 12.9 17.7 0.00 0.00 0.00 52 1017.1
20260504173455 24 342 3.2 4.8 0.00 0.00 0.00 53 1017.2
20260504172454 24 338 8.0 11.3 0.00 0.00 0.00 52 1017.3
20260504171454 23 205 4.8 4.8 0.00 0.00 0.00 53 1017.4
20260504170453 23 263 1.6 3.2 0.00 0.00 0.00 52 1017.8
20260504160442 22 256 4.8 4.8 0.00 0.00 0.00 58 1018.4
20260504150432 20 340 9.7 11.3 0.00 0.00 0.00 62 1018.5
20260504140423 18 201 4.8 8.0 0.00 0.00 0.00 67 1019.1
20260504130417 14 336 8.0 11.3 0.00 0.00 0.00 75 1019.3
20260504110345 7 252 0.0 0.0 0.00 0.00 0.00 96 1018.5
20260504100332 7 252 0.0 0.0 0.00 0.00 0.00 94 1018.4
20260504081308 10 247 0.0 0.0 0.00 0.00 0.00 82 1018.3
20260504080307 10 243 0.0 1.6 0.00 0.00 0.00 82 1018.5
20260504070252 9 248 0.0 0.0 0.00 0.00 0.00 87 1019.1
20260504060241 11 252 1.6 1.6 0.00 0.00 0.00 77 1019.5
20260504050229 12 290 4.8 4.8 0.00 0.00 0.00 71 1019.4
20260504045227 12 270 4.8 4.8 0.00 0.00 0.00 70 1019.6
20260504044222 12 311 4.8 4.8 0.00 0.00 0.00 70 1019.5
20260504043222 12 279 4.8 4.8 0.00 0.00 0.00 70 1019.6
20260504042221 12 252 1.6 3.2 0.00 0.00 0.00 71 1019.7
20260504041220 12 272 6.4 8.0 0.00 0.00 0.00 71 1019.9
20260504040219 12 251 1.6 1.6 0.00 0.00 0.00 74 1019.8
20260504035219 12 242 1.6 1.6 0.00 0.00 0.00 72 1019.9
20260504034219 12 246 3.2 3.2 0.00 0.00 0.00 72 1019.9
20260504033214 12 263 4.8 4.8 0.00 0.00 0.00 72 1019.9
20260504032214 12 265 3.2 3.2 0.00 0.00 0.00 72 1020.2
20260504031214 12 252 1.6 3.2 0.00 0.00 0.00 71 1020.0
20260504030213 12 269 4.8 4.8 0.00 0.00 0.00 70 1020.1
20260504025211 12 258 4.8 4.8 0.00 0.00 0.00 70 1020.2
20260504024211 12 249 4.8 4.8 0.00 0.00 0.00 70 1020.2
20260504023209 12 259 3.2 3.2 0.00 0.00 0.00 72 1020.3
20260504022208 12 248 0.0 0.0 0.00 0.00 0.00 74 1020.1
20260504021208 12 247 1.6 1.6 0.00 0.00 0.00 70 1020.1
20260504020207 12 261 3.2 3.2 0.00 0.00 0.00 72 1019.9
20260504015206 12 259 3.2 3.2 0.00 0.00 0.00 74 1020.0
20260504014205 11 248 1.6 1.6 0.00 0.00 0.00 77 1019.9
20260504013206 12 260 1.6 3.2 0.00 0.00 0.00 74 1019.9
20260504012200 12 251 0.0 0.0 0.00 0.00 0.00 73 1019.8
20260504011159 13 252 1.6 1.6 0.00 0.00 0.00 70 1019.7
20260504010157 13 242 0.0 0.0 0.00 0.00 0.00 67 1019.7
20260504005157 15 243 0.0 0.0 0.00 0.00 0.00 63 1019.7
20260504004151 15 248 1.6 1.6 0.00 0.00 0.00 61 1019.8
20260504003151 16 252 0.0 0.0 0.00 0.00 0.00 56 1019.4
20260504002151 16 261 3.2 3.2 0.00 0.00 0.00 52 1019.3
20260504001150 17 255 1.6 1.6 0.00 0.00 0.00 51 1019.7
20260504000151 17 265 4.8 4.8 0.00 0.00 0.00 49 1019.5
20260503235151 18 277 4.8 4.8 0.00 0.00 0.00 46 1019.6
20260503234147 18 255 1.6 3.2 0.00 0.00 0.00 43 1019.6
20260503233145 20 298 3.2 4.8 0.00 0.00 0.00 41 1019.6
20260503232145 20 252 0.0 1.6 0.00 0.00 0.00 40 1019.6
20260503231145 19 152 1.6 3.2 0.00 0.00 0.00 40 1019.9
20260503230145 20 278 4.8 4.8 0.00 0.00 0.00 39 1020.2
20260503225142 20 271 4.8 4.8 0.00 0.00 0.00 39 1020.2
20260503224137 20 242 3.2 3.2 0.00 0.00 0.00 40 1020.2
20260503223137 20 261 0.0 1.6 0.00 0.00 0.00 41 1020.3
20260503222132 20 252 1.6 1.6 0.00 0.00 0.00 41 1020.6
20260503221127 20 331 3.2 4.8 0.00 0.00 0.00 38 1020.5
20260503220126 20 170 6.4 8.0 0.00 0.00 0.00 46 1020.4
20260503215126 20 272 9.7 11.3 0.00 0.00 0.00 38 1020.5
20260503214120 20 203 8.0 9.7 0.00 0.00 0.00 38 1020.6
20260503213116 20 344 4.8 8.0 0.00 0.00 0.00 39 1020.9
20260503212111 20 224 4.8 8.0 0.00 0.00 0.00 44 1020.8
20260503211109 20 217 4.8 4.8 0.00 0.00 0.00 41 1020.9
20260503210108 19 177 4.8 8.0 0.00 0.00 0.00 44 1021.3
20260503205107 19 338 4.8 9.7 0.00 0.00 0.00 41 1021.3
20260503204101 20 342 8.0 9.7 0.00 0.00 0.00 43 1021.7
20260503203101 20 247 3.2 8.0 0.00 0.00 0.00 41 1021.5
20260503202056 20 229 4.8 4.8 0.00 0.00 0.00 41 1021.7
20260503201051 19 184 8.0 8.0 0.00 0.00 0.00 41 1022.0
20260503200050 20 166 11.3 14.5 0.00 0.00 0.00 41 1022.0
20260503195050 19 343 11.3 14.5 0.00 0.00 0.00 44 1022.4
20260503194047 18 233 0.0 1.6 0.00 0.00 0.00 42 1022.5
20260503193044 18 215 6.4 8.0 0.00 0.00 0.00 47 1022.6
20260503192042 18 208 8.0 12.9 0.00 0.00 0.00 44 1023.1
20260503191042 18 249 1.6 1.6 0.00 0.00 0.00 42 1023.0